Wind_Speed
18 24 24 28 30 30 32 32 31 28 29 32 31 30 29 28 26 25 23 23 22 21 20 21 22 20 19 17 17 19 18 15 14 12 11 10 11 11 11 12 11 9 9 9 10 10 11 10 8 8 9 9 5 4 4 2 3 5 5 2 1 3 3 2 3 5 7 7 4 5 7 6 6 6 9 11 12 13 13 13 13 12 11 10 9
16 18 21 28 29 31 32 31 30 29 31 33 32 31 30 28 28 27 25 25 23 21 22 22 21 20 19 18 17 17 16 15 14 13 12 10 10 10 11 12 12 10 9 9 9 10 10 9 8 8 8 9 7 5 5 4 4 6 5 3 0 2 2 2 2 1 2 3 2 3 5 6 7 8 9 11 13 14 14 13 13 13 12 10 9
13 12 18 26 28 31 31 29 30 32 34 34 33 32 31 29 29 28 27 26 23 21 23 23 19 18 18 17 17 16 14 14 13 13 12 10 10 10 11 12 12 11 10 10 10 9 9 9 8 7 8 8 7 7 6 5 5 5 5 3 2 2 2 2 1 1 2 3 1 0 2 2 5 7 9 11 13 14 14 14 14 14 13 11 10
13 10 15 23 27 29 29 28 29 32 33 33 32 32 31 30 30 30 28 27 25 21 22 23 18 17 16 15 16 15 14 14 13 13 12 10 9 9 11 11 11 11 10 10 10 9 9 8 8 7 7 7 7 8 7 6 5 4 3 2 2 3 2 1 1 1 3 4 1 0 0 1 1 4 7 9 11 13 14 15 15 15 14 13 12
13 11 13 20 24 26 28 29 29 31 32 32 33 31 31 32 31 30 28 27 27 22 22 24 19 18 17 16 17 16 15 15 15 16 14 11 10 10 11 10 10 11 11 10 10 9 9 9 8 7 7 8 8 7 7 6 5 3 2 1 2 3 3 1 2 1 3 3 1 1 1 1 2 3 5 6 8 12 12 13 15 15 16 15 14
12 11 15 19 23 26 27 29 29 30 31 33 33 31 31 32 30 29 27 27 28 24 24 25 20 19 21 20 21 20 19 18 18 19 17 15 12 11 11 10 10 11 11 11 10 9 9 9 9 8 8 8 8 7 7 7 5 3 2 2 2 2 2 1 2 2 3 2 2 3 3 3 3 3 2 2 6 9 10 10 13 14 14 14 13
11 11 15 18 22 24 25 28 30 29 31 32 31 30 31 32 30 29 27 26 28 26 24 25 21 20 23 22 22 22 22 21 19 19 18 16 14 12 11 11 11 11 11 10 10 10 9 9 9 9 8 8 8 7 8 7 5 4 4 3 4 2 1 1 1 1 1 2 3 3 4 3 3 3 1 1 3 5 5 6 8 10 11 11 10
11 11 14 18 22 25 26 28 30 30 31 31 30 30 32 32 30 29 27 25 27 27 24 24 22 22 22 22 23 23 21 20 20 20 18 16 15 13 12 12 12 12 11 10 10 10 10 9 9 9 8 7 7 7 7 6 5 5 5 5 5 3 1 1 1 2 2 3 3 2 3 3 4 5 3 1 1 2 5 6 3 6 9 10 9
11 12 14 19 23 26 28 29 30 30 32 32 30 31 32 32 30 29 28 25 26 28 25 23 23 22 21 21 23 23 19 18 20 20 19 18 17 15 13 13 13 13 12 12 10 10 10 10 10 10 8 8 7 7 7 5 5 6 6 6 6 4 4 2 0 1 2 3 4 3 4 4 5 4 3 3 2 0 3 4 6 6 4 8 9
8 12 16 22 25 28 30 30 30 31 32 32 30 31 32 32 30 30 29 26 25 28 26 23 23 22 20 21 23 23 20 19 20 20 20 20 19 18 16 14 14 14 14 13 11 10 10 11 11 10 8 8 8 8 7 6 6 7 7 7 7 7 6 3 2 1 1 3 3 4 5 5 5 4 3 5 3 1 1 3 7 8 2 3 4
6 9 14 23 27 28 30 30 30 31 31 31 30 31 32 32 30 30 30 27 25 26 26 23 23 22 20 21 22 21 19 20 20 19 20 21 20 20 19 16 15 15 14 13 12 11 11 11 11 11 10 10 9 9 7 7 8 9 8 8 7 8 7 5 4 3 2 3 3 4 6 6 7 6 6 7 5 2 2 3 6 8 6 4 1
6 7 12 18 21 24 27 29 29 31 31 30 30 32 33 33 32 31 31 29 26 26 26 24 23 23 21 20 20 20 19 19 21 20 18 19 19 20 20 18 17 16 16 15 13 12 12 11 11 11 12 11 10 9 8 8 9 8 7 8 7 7 7 7 5 5 5 5 5 5 6 7 9 10 11 10 8 6 3 3 5 7 6 6 5
6 7 10 12 16 20 24 27 28 30 32 31 31 33 34 34 34 33 32 31 29 27 27 25 25 25 24 21 19 19 20 19 20 20 18 16 18 21 21 21 19 18 17 15 14 13 12 12 11 12 12 11 11 10 9 9 8 7 7 7 8 7 7 8 8 7 7 6 6 6 5 6 7 8 10 11 10 7 4 3 3 4 4 6 6
6 7 9 10 15 21 24 26 28 29 32 33 32 33 35 35 35 35 33 33 31 29 28 27 26 27 26 24 21 18 20 20 19 20 19 16 17 20 21 20 20 18 16 15 14 14 13 12 11 11 10 10 10 10 10 10 9 8 8 8 8 7 7 7 8 7 7 7 6 6 6 6 6 7 7 7 6 3 2 2 3 4 4 5 6
5 5 6 7 12 20 24 25 27 29 31 31 32 33 34 35 36 36 34 33 32 31 30 29 28 28 27 27 24 20 20 20 19 20 20 17 17 18 18 18 18 17 16 14 13 13 12 12 11 11 9 9 10 10 11 11 10 9 9 9 8 6 6 6 6 7 7 7 6 6 6 6 5 6 6 4 1 0 2 3 3 3 3 4 5
4 4 4 7 10 7 12 16 22 28 31 29 30 32 33 34 36 36 35 34 33 32 32 31 29 28 27 28 27 23 20 19 19 21 21 19 18 17 17 17 16 16 15 14 14 14 12 12 12 12 10 9 10 11 11 11 10 10 10 10 9 7 7 7 6 6 7 7 7 7 7 6 5 4 4 3 1 3 4 3 3 3 2 2 4
5 4 3 12 18 14 12 12 17 25 30 30 30 32 34 33 34 35 34 34 34 33 32 31 30 28 27 27 27 25 21 19 19 20 19 19 18 18 17 16 15 15 15 14 14 14 13 13 13 13 12 10 10 11 11 11 10 10 11 11 10 9 10 10 8 7 7 7 7 7 7 6 5 4 3 3 4 4 5 4 3 2 2 1 0
7 6 6 15 18 11 10 14 20 24 27 29 32 34 34 34 34 33 33 33 33 33 32 31 30 29 27 26 27 26 22 19 19 19 18 18 18 17 17 17 16 15 16 16 14 14 14 14 14 13 13 12 11 10 11 11 10 10 11 12 11 10 11 11 10 9 8 7 7 7 7 6 5 5 5 4 5 4 4 4 3 2 2 1 1
7 7 5 9 15 17 18 20 21 21 22 27 33 34 33 33 34 33 33 34 33 33 32 31 30 28 27 26 25 25 23 21 19 18 17 18 18 17 17 18 18 16 16 17 17 16 15 15 15 14 13 13 11 10 11 12 12 11 11 11 11 10 11 11 10 10 9 8 8 7 6 6 5 6 6 5 4 2 2 3 3 3 4 4 3
5 7 7 8 12 17 22 22 22 22 23 25 29 31 31 31 32 32 31 31 30 29 29 29 28 27 25 24 23 23 23 21 20 19 18 18 17 17 17 17 17 18 17 17 18 18 16 16 16 16 15 14 13 11 10 11 13 13 12 11 10 10 11 12 11 11 10 9 9 8 7 7 6 7 7 6 5 4 3 4 5 6 7 7 7
5 6 6 8 11 14 16 17 21 23 21 20 23 26 27 26 28 28 27 26 26 26 26 25 22 19 17 18 19 20 21 21 21 20 19 19 18 18 17 17 17 18 19 18 18 19 18 17 17 17 17 15 15 14 12 11 12 13 12 11 11 10 10 11 10 10 10 10 10 10 9 8 7 8 9 8 7 7 7 8 7 9 11 11 11
5 4 4 6 9 10 10 10 12 13 13 14 16 21 22 21 21 18 15 18 15 10 11 12 13 14 13 13 16 19 20 19 20 21 21 20 20 19 18 18 18 18 18 19 18 19 20 19 18 18 18 17 16 17 15 13 13 13 13 12 11 11 11 10 10 11 10 10 10 11 10 9 9 10 11 11 10 9 10 10 8 9 11 12 13
7 6 6 6 5 5 6 7 8 7 9 10 10 13 15 15 14 11 12 15 7 9 9 10 15 21 21 18 17 19 21 20 18 20 21 21 21 21 21 20 20 19 18 19 20 19 20 21 21 19 19 18 18 18 17 16 16 16 15 14 13 12 13 12 12 12 11 10 10 11 11 10 10 11 12 11 11 11 10 10 10 9 10 11 11
8 7 8 8 6 5 6 7 8 6 6 7 7 8 10 9 8 10 17 18 8 7 10 12 18 24 24 22 19 17 19 19 17 18 20 20 20 21 22 22 21 20 20 20 21 21 20 21 22 22 20 20 20 20 20 19 18 17 17 16 15 14 14 14 14 13 12 11 11 12 13 12 11 12 12 12 12 12 12 12 12 11 11 11 10
8 8 9 10 9 8 8 8 8 7 6 8 8 8 8 9 10 13 19 17 12 15 15 10 13 18 18 20 21 19 18 18 19 20 20 19 18 18 21 22 21 21 21 21 22 23 22 22 23 23 22 22 21 20 21 22 22 20 18 17 16 16 15 15 16 15 14 14 14 14 13 12 12 13 13 13 14 14 13 13 13 13 13 12 10
8 8 8 9 10 11 11 12 12 12 10 9 10 10 14 19 18 15 15 14 13 19 17 11 11 14 14 16 19 19 18 17 20 22 21 20 18 17 18 20 20 20 20 22 23 24 25 25 25 24 23 22 21 21 21 22 23 23 21 19 18 18 17 16 16 17 16 15 16 15 14 12 13 15 14 14 15 14 14 13 14 15 14 13 12
7 8 8 8 10 11 13 15 17 17 14 12 13 14 17 21 19 15 14 16 13 14 14 11 10 12 14 16 15 14 12 13 16 19 20 20 20 20 19 19 20 20 19 19 22 26 27 26 26 26 25 23 22 22 22 22 23 24 24 23 21 20 20 19 18 18 18 17 17 17 16 15 15 16 16 16 16 16 17 16 16 16 15 14 15
7 8 8 9 8 9 13 16 18 20 19 18 18 17 18 20 17 13 14 18 17 14 13 12 12 12 13 14 14 13 11 11 13 15 17 18 19 19 20 20 20 19 18 17 19 24 27 28 27 26 26 25 23 23 23 23 22 22 23 25 24 23 22 21 20 20 20 20 20 19 19 18 18 19 19 19 19 19 19 19 19 18 17 17 17
9 8 9 9 8 8 11 15 17 18 20 21 21 19 19 18 14 13 16 19 20 18 16 14 13 13 12 10 12 14 14 14 13 13 15 17 17 17 17 19 19 18 17 17 18 22 25 28 29 28 28 27 26 26 25 24 24 23 23 24 25 25 24 23 23 23 23 23 22 22 22 21 21 21 21 20 19 19 20 21 20 20 20 20 20
9 9 8 8 9 10 12 15 15 15 17 19 21 21 22 20 17 17 19 19 19 19 17 16 14 13 11 10 10 11 11 11 11 10 11 12 14 14 15 17 18 17 15 14 15 19 23 27 28 29 30 29 28 28 27 26 26 26 26 25 25 26 25 24 24 25 26 26 25 24 23 22 20 20 19 19 19 19 21 22 22 22 23 23 23
9 9 8 8 9 11 12 14 13 13 13 15 18 20 21 20 19 19 19 19 19 18 17 17 16 15 13 10 9 8 7 7 8 8 7 8 9 11 14 16 18 17 14 11 10 13 18 23 25 28 30 30 30 29 28 28 28 27 28 28 27 27 27 27 26 27 27 28 27 27 27 25 23 21 20 20 20 20 21 22 23 24 25 26 26
8 8 8 8 8 10 11 13 13 13 14 14 15 17 19 18 17 18 18 20 20 18 17 17 16 15 13 11 9 7 6 5 5 5 6 7 7 8 10 13 15 15 12 11 10 9 12 15 18 22 26 28 28 28 28 28 29 28 28 28 28 29 29 29 29 29 29 29 29 29 29 28 27 26 25 24 23 23 24 24 24 24 24 25 27
9 8 7 8 9 10 12 11 12 14 14 14 14 16 18 18 17 17 18 20 19 18 17 17 15 13 10 8 8 7 5 3 3 4 4 5 5 5 6 7 9 11 11 11 11 10 9 10 12 14 17 21 23 25 26 26 27 27 28 28 29 29 30 31 31 30 30 30 30 30 30 30 29 28 28 27 27 26 25 25 25 25 24 24 25
9 8 8 10 10 11 12 14 15 17 17 15 15 15 17 19 19 19 19 19 18 18 17 17 16 12 8 7 8 7 5 3 2 2 2 2 2 2 2 1 3 5 7 8 9 9 9 9 9 10 12 14 17 19 22 24 25 25 26 27 30 31 32 32 32 31 31 31 31 31 32 32 32 31 30 29 29 28 28 28 28 28 29 28 27
8 6 7 9 11 12 13 14 16 18 18 17 15 15 16 18 19 19 18 18 18 17 17 17 16 13 10 8 7 6 6 5 5 5 3 2 2 3 3 3 2 1 2 4 5 7 8 8 9 9 10 12 14 16 18 20 22 22 22 24 27 29 31 33 34 34 33 33 32 32 33 33 33 32 32 31 31 31 31 32 32 32 32 32 31
7 7 8 10 12 12 13 12 12 16 18 17 17 16 15 15 16 16 15 15 16 15 15 15 14 12 10 8 6 5 5 6 7 7 6 5 4 3 3 3 3 2 2 1 1 5 7 7 8 8 10 12 15 17 18 19 20 20 20 21 22 23 25 27 31 33 35 35 35 34 34 35 34 34 33 32 32 32 32 33 34 34 34 33 33
11 12 14 16 14 13 15 15 13 15 16 16 18 19 17 15 15 15 14 13 13 13 13 13 12 11 10 8 7 7 7 8 9 9 8 7 6 5 5 4 4 4 3 3 3 5 7 7 7 8 10 13 15 16 16 16 16 16 17 18 19 21 22 24 26 28 31 34 36 36 36 36 36 36 36 34 33 32 33 34 34 34 34 34 34
15 17 19 19 17 18 20 19 17 16 15 13 13 17 18 17 15 14 13 13 12 12 11 11 11 11 11 10 10 10 9 9 10 11 10 10 9 8 7 7 6 6 6 5 5 6 8 7 6 7 9 12 15 14 12 12 13 14 15 16 17 19 22 24 26 26 27 29 32 34 36 37 37 38 38 37 35 33 33 32 31 32 32 31 32
19 21 21 20 21 22 22 21 19 17 14 12 10 12 16 17 15 14 14 14 13 12 11 10 10 11 10 10 10 11 11 11 12 12 12 12 12 11 10 9 9 8 8 8 7 7 10 10 8 8 9 11 13 13 11 12 13 14 16 17 17 18 20 22 24 25 25 27 28 30 33 35 37 39 39 39 37 35 33 32 32 31 30 32 34
21 22 22 21 22 23 22 21 19 16 13 12 10 10 12 14 14 15 15 15 13 12 10 9 10 11 10 10 11 12 12 13 13 14 13 13 13 13 13 12 12 11 11 10 9 9 11 13 11 9 10 11 13 14 14 14 14 15 16 17 18 20 21 22 24 24 25 26 27 28 30 32 34 37 38 39 40 38 38 37 36 34 33 35 38
20 21 21 22 22 22 21 19 17 14 13 12 11 12 12 12 13 14 14 13 11 10 10 10 10 11 11 11 12 12 13 14 14 14 14 12 12 13 13 14 14 13 13 13 12 11 13 15 14 12 12 12 13 14 14 14 14 15 15 16 18 20 22 23 25 25 25 25 26 27 28 29 31 33 35 36 37 38 39 40 39 38 37 38 38
19 19 19 20 20 20 19 17 15 14 13 13 13 14 13 12 12 13 12 10 10 9 9 10 10 11 11 12 13 13 14 15 15 15 15 14 13 12 13 14 14 14 13 14 15 15 16 17 16 14 13 13 12 13 14 14 13 13 13 14 16 18 19 21 24 26 26 26 26 26 27 27 28 30 31 32 32 33 35 37 38 38 37 36 36
19 18 17 18 19 18 17 17 15 14 13 12 13 13 12 11 11 10 8 8 9 9 9 10 10 11 12 12 13 14 15 15 15 16 16 16 15 14 14 14 15 15 16 17 17 18 18 18 18 17 16 15 13 12 12 12 12 11 11 12 14 15 15 17 21 23 25 25 25 25 25 24 25 26 27 28 29 30 32 33 34 34 34 34 35
19 18 16 16 18 16 15 15 14 13 12 10 11 12 11 10 9 8 6 7 8 8 8 9 10 11 12 13 14 14 15 15 15 16 17 17 17 17 16 16 17 18 18 18 18 18 17 18 18 18 17 14 11 10 11 12 12 12 12 13 14 15 15 15 17 19 21 22 24 24 24 23 24 24 25 26 27 28 30 31 31 31 31 31 31
18 17 15 14 15 14 13 12 11 11 11 9 9 9 9 8 8 7 6 7 8 8 8 9 10 10 12 13 14 15 15 15 15 15 16 17 17 17 18 17 18 18 17 17 17 16 15 15 15 15 15 12 10 12 15 16 16 15 15 16 16 16 16 15 15 17 18 19 21 22 23 23 23 24 25 27 28 28 28 29 28 27 26 25 24
17 15 13 13 13 12 12 10 9 9 9 8 8 8 8 8 8 7 7 8 8 8 9 10 10 11 12 14 15 16 17 17 16 16 16 16 16 17 18 18 18 18 19 19 18 17 17 18 18 18 18 18 18 19 21 21 21 18 17 16 16 16 15 14 14 16 17 18 19 20 21 21 21 21 22 25 28 30 31 31 30 29 28 28 29
15 14 13 12 12 11 9 8 7 7 7 7 7 8 8 9 9 9 9 9 9 10 10 11 12 12 12 14 16 17 18 18 18 18 19 19 18 18 19 19 20 20 20 20 20 20 20 21 22 23 23 24 24 24 24 24 23 20 18 18 17 16 16 17 19 20 22 22 23 23 23 23 23 22 22 23 24 26 28 30 32 33 34 35 37
14 14 13 12 11 9 7 6 7 7 7 7 8 8 9 10 10 11 10 10 10 11 11 11 11 12 13 14 16 17 18 19 20 20 21 21 21 21 21 21 20 19 19 20 21 22 22 22 23 24 25 26 26 26 25 24 23 21 21 22 22 22 23 25 26 25 25 25 26 26 27 26 26 26 27 27 27 26 25 25 26 27 29 31 32
15 15 13 11 8 7 6 7 8 8 7 6 7 8 8 9 10 10 10 10 11 11 10 10 11 12 13 14 15 16 17 18 19 20 21 21 21 21 22 22 21 19 19 20 22 23 23 23 24 24 23 24 27 27 25 23 22 23 24 26 27 27 28 29 28 27 27 27 26 27 26 25 26 27 27 28 28 28 27 26 26 25 26 26 27
16 14 11 8 6 7 9 10 9 8 6 5 5 6 8 8 8 8 10 10 11 11 11 11 12 12 13 14 15 16 16 17 19 20 21 22 22 21 20 21 21 21 20 19 20 21 22 23 25 26 24 24 26 27 25 23 23 24 25 27 28 28 28 29 29 29 28 27 25 24 24 24 24 24 25 26 26 26 26 26 27 26 26 26 26
16 12 10 9 9 10 12 10 8 6 5 5 5 6 6 6 7 8 9 10 10 11 11 12 13 14 14 15 16 17 17 18 19 20 21 23 23 23 22 21 20 20 20 20 20 22 22 21 22 24 24 24 25 25 25 25 25 25 25 24 25 25 27 28 30 30 29 28 25 23 23 23 23 23 23 24 24 24 24 24 25 26 26 26 27
Wind_Direction
169 167 163 163 163 164 166 167 169 167 164 167 170 170 171 172 173 175 175 173 178 184 184 179 178 178 176 174 173 174 179 182 181 182 183 184 190 190 183 182 184 182 182 185 189 192 192 192 194 198 196 194 198 195 194 196 201 209 207 205 22 61 71 85 118 124 145 162 192 215 214 221 234 243 242 246 255 258 253 248 252 258 260 260 260
169 163 155 158 159 161 163 164 165 163 162 166 169 171 171 170 172 176 174 174 181 183 179 177 180 181 178 178 178 177 182 184 182 187 187 185 191 194 189 189 190 188 186 184 186 190 191 196 202 201 196 197 200 200 202 194 197 210 208 208 290 357 1 57 117 123 151 166 185 219 238 244 249 252 250 255 261 260 252 246 250 254 257 259 254
169 161 151 155 157 159 161 163 164 162 162 166 168 169 170 169 173 177 174 175 180 178 177 176 176 181 180 181 183 180 183 187 185 187 191 194 198 198 193 193 191 190 190 187 189 194 192 195 201 197 191 195 199 201 205 200 197 203 203 219 260 288 325 98 125 292 213 191 128 27 284 280 274 268 263 262 261 261 257 251 252 250 253 256 249
168 162 150 154 157 159 162 163 162 161 162 165 168 169 170 170 173 175 175 178 180 178 181 179 174 179 182 182 186 185 184 188 186 187 195 199 198 198 198 199 197 196 197 194 196 203 199 200 206 203 195 196 198 203 209 202 191 189 198 239 292 303 306 186 191 289 198 194 170 203 323 38 305 279 284 277 262 258 257 255 255 252 251 251 249
168 163 152 155 158 160 163 163 161 162 164 167 169 171 172 173 175 177 178 181 182 182 184 182 176 177 182 180 182 184 182 186 187 189 197 200 196 196 196 201 202 199 201 200 205 208 203 206 210 211 208 203 204 211 213 198 179 170 186 260 324 327 315 213 190 258 211 207 225 224 22 27 243 273 308 293 262 253 257 262 261 256 254 253 254
168 162 156 157 160 161 163 163 163 165 167 169 171 174 175 177 178 179 181 183 184 183 183 185 183 180 183 182 179 179 179 184 188 190 196 201 201 199 193 195 198 198 199 200 207 209 207 208 208 214 216 207 208 211 202 190 182 175 180 252 298 318 323 168 164 226 215 225 304 297 307 300 273 299 325 303 275 258 260 270 265 261 258 254 250
166 162 159 159 160 161 163 164 165 168 170 170 172 175 177 178 180 181 184 186 185 183 182 187 190 189 190 188 183 181 182 185 190 192 197 202 203 201 195 194 194 195 196 197 204 208 210 213 211 215 215 206 209 203 191 192 205 210 207 240 262 260 292 155 137 303 253 293 312 305 318 318 316 327 280 295 315 271 287 300 266 254 250 245 243
167 163 162 163 163 164 166 167 168 169 171 171 173 176 179 180 183 184 185 188 187 184 185 190 194 196 196 193 190 188 187 186 188 193 199 201 201 199 196 195 193 194 197 201 209 210 211 213 212 214 211 203 203 196 193 203 218 221 215 225 237 237 239 197 82 26 11 339 315 298 331 353 360 354 325 319 46 257 326 350 315 263 239 239 246
172 168 167 166 167 167 168 169 169 170 171 173 175 178 180 182 184 186 188 190 189 187 189 194 197 200 200 195 191 190 189 186 187 194 200 201 200 198 195 193 193 199 206 210 216 218 213 210 209 211 204 194 196 197 197 204 218 221 217 220 231 240 237 220 206 27 15 346 333 321 324 336 348 354 350 352 37 196 310 337 349 337 245 234 242
182 172 172 170 170 170 169 170 170 170 172 175 177 179 180 182 184 186 189 189 188 190 194 196 200 205 203 193 187 186 187 188 188 194 201 202 202 202 197 191 191 200 209 213 220 224 218 211 209 210 206 199 200 203 206 214 217 214 216 227 237 239 233 223 229 254 318 320 321 331 328 328 331 335 351 350 353 32 312 303 335 351 329 254 224
196 173 175 172 171 170 168 170 172 172 174 175 178 181 181 182 185 186 188 188 188 193 196 197 201 206 204 195 190 186 185 187 188 193 199 202 204 205 201 194 192 199 207 213 220 224 223 219 214 211 212 215 212 209 216 222 213 212 226 236 233 227 225 227 230 230 255 274 283 308 318 317 313 309 318 329 322 311 323 314 340 360 356 335 305
196 173 174 171 171 169 168 170 172 173 175 175 178 182 183 184 186 187 188 189 190 194 197 198 201 205 203 198 195 193 190 188 190 195 200 206 208 204 201 199 197 201 208 213 217 220 221 224 223 216 213 220 222 217 220 218 210 217 229 229 223 220 221 228 231 228 238 256 273 296 310 312 310 305 298 301 307 308 305 315 352 6 358 336 321
182 170 174 172 171 170 170 172 172 173 177 179 180 183 185 187 188 189 190 192 193 195 198 198 200 204 204 199 196 197 199 196 197 202 207 211 208 200 198 199 199 201 207 214 219 220 220 222 226 221 213 218 222 219 218 216 215 219 220 220 226 232 230 231 236 236 240 257 278 292 302 310 324 327 306 295 298 304 313 341 7 4 341 337 340
170 166 171 175 176 173 171 171 173 176 180 182 183 184 185 187 190 191 192 194 195 196 198 199 199 203 206 204 198 197 204 204 204 209 211 209 201 196 197 197 198 203 210 217 221 223 224 222 224 220 214 218 224 223 218 217 223 224 221 226 230 234 234 236 243 242 241 254 276 292 299 303 325 348 340 314 295 295 358 27 11 351 335 346 5
162 149 149 154 172 178 176 173 174 178 182 183 184 185 186 187 190 192 193 194 196 197 199 200 200 203 206 207 202 199 205 210 211 212 211 208 202 199 200 201 205 210 214 218 219 221 223 222 222 219 216 225 231 229 221 218 224 225 225 229 226 221 223 232 244 244 243 253 272 289 296 294 309 349 7 4 317 344 27 32 27 25 360 344 1
135 102 109 73 61 104 154 162 169 175 180 182 182 184 187 189 191 193 194 194 196 198 199 201 203 204 207 207 204 202 206 211 212 210 209 211 211 210 208 209 214 218 218 219 220 220 221 221 223 222 220 231 237 231 223 221 223 222 224 229 226 222 228 236 244 243 246 257 271 283 282 280 293 331 4 8 355 355 352 358 19 52 57 345 341
112 114 110 75 63 57 78 117 160 174 177 177 178 185 189 190 192 193 194 195 196 199 200 202 204 205 207 207 205 206 208 209 208 207 209 214 216 219 218 215 218 220 220 221 220 219 221 223 226 227 224 228 235 230 224 224 224 222 224 230 232 231 234 238 241 241 244 256 268 277 275 276 289 294 307 310 304 328 337 323 325 358 36 87 27
88 105 79 86 102 117 123 145 172 179 179 177 178 186 191 192 194 194 195 195 196 199 201 202 203 204 205 205 206 209 212 212 210 209 212 214 215 219 222 220 221 224 224 222 221 221 223 223 224 228 228 225 230 232 227 224 225 227 231 235 236 234 234 237 240 242 247 256 266 277 279 275 281 280 284 300 293 303 321 302 293 312 317 297 180
69 93 90 106 131 158 173 178 182 180 183 184 182 187 191 193 195 196 197 198 198 200 200 201 203 204 205 205 207 210 213 216 217 214 214 214 215 218 222 223 223 227 229 224 222 224 226 225 222 226 228 224 226 233 232 227 227 234 238 241 239 234 235 239 240 245 253 261 266 274 279 267 268 276 281 301 297 284 306 291 279 286 291 292 270
93 120 149 159 153 168 179 183 185 185 190 192 189 189 191 192 194 196 199 199 199 200 200 201 202 204 207 208 210 212 214 217 220 220 219 218 218 220 223 224 223 227 232 229 227 226 225 222 221 224 226 224 225 231 235 230 230 235 240 246 248 241 241 244 245 249 253 258 265 273 278 267 261 270 274 287 285 266 268 280 283 284 282 284 278
136 156 163 149 147 167 177 178 184 187 189 193 194 193 191 189 190 193 197 197 199 201 200 197 196 196 201 207 212 215 217 220 222 224 225 223 223 224 222 224 226 228 231 233 233 229 224 221 220 221 223 225 228 230 233 232 232 238 241 245 250 247 245 248 252 257 255 254 263 276 283 275 265 268 269 273 275 264 262 274 290 292 285 280 272
101 127 128 121 136 158 163 162 174 178 178 187 197 199 193 184 182 181 185 193 192 178 160 155 163 179 192 201 208 211 211 216 221 224 226 226 226 226 223 225 229 229 229 231 233 232 228 225 222 221 223 227 232 231 232 232 232 237 241 243 245 243 242 248 257 263 261 256 261 272 279 277 271 270 268 267 270 267 262 269 288 299 292 283 272
65 73 80 97 123 141 132 130 136 149 171 177 187 199 196 186 175 155 171 190 162 90 104 136 170 192 201 205 211 213 209 208 212 217 221 224 226 227 225 224 226 227 227 228 231 234 233 228 224 224 224 226 230 230 230 232 233 234 237 241 243 240 240 246 253 257 257 253 256 263 269 271 271 271 270 268 268 270 272 273 280 294 302 301 288
63 61 64 82 102 106 97 100 99 109 159 159 153 181 196 197 182 177 200 208 191 162 185 185 188 196 200 203 211 218 214 210 210 212 216 220 224 225 223 222 224 226 227 228 228 230 232 228 224 225 226 226 228 230 230 233 235 234 235 238 241 243 243 243 243 248 252 251 252 258 260 262 266 268 272 273 271 275 281 277 276 286 296 301 302
63 62 62 67 72 71 72 77 75 77 112 134 139 160 169 157 156 185 204 204 195 199 200 185 186 193 197 205 213 219 219 217 215 213 213 217 220 221 220 220 223 226 229 231 229 226 227 228 226 226 228 229 230 231 232 233 235 236 237 239 241 243 246 242 240 245 251 252 253 256 256 256 258 261 265 269 272 278 281 274 272 279 284 288 293
63 63 64 63 61 56 56 59 57 63 82 106 117 124 129 131 141 170 178 163 177 199 196 180 187 192 196 206 212 216 221 225 225 221 219 222 223 221 219 219 220 223 228 234 234 230 227 228 230 231 232 233 234 234 235 237 238 237 238 240 242 244 246 245 243 244 246 248 250 252 253 252 254 257 260 263 268 274 276 273 272 274 276 280 283
66 68 67 65 61 53 52 52 51 56 62 71 86 94 105 122 144 172 160 140 154 183 184 179 186 197 209 215 213 215 218 223 228 227 226 230 232 229 227 223 222 222 226 234 239 236 232 231 232 234 235 236 236 235 238 241 242 241 240 240 242 245 246 247 246 246 246 245 246 248 250 251 253 256 258 261 264 267 269 271 271 270 270 273 276
65 67 69 70 64 52 55 56 53 54 55 57 65 70 81 104 132 153 139 133 139 144 153 163 169 183 205 218 221 226 226 223 227 229 228 232 236 237 233 228 225 226 228 235 241 239 236 233 233 234 235 236 236 235 238 242 243 243 243 243 244 245 248 249 249 250 251 249 247 247 248 250 252 255 259 260 262 263 264 265 266 265 265 268 271
73 69 71 77 75 63 61 60 57 57 57 57 61 63 68 81 103 116 115 124 132 132 139 149 156 168 181 192 205 215 222 225 229 232 233 236 239 239 232 227 226 227 231 241 246 245 239 235 234 235 235 234 235 235 237 239 241 242 243 244 245 246 248 251 253 256 257 256 252 250 250 252 253 256 259 259 260 263 264 264 266 266 265 266 267
87 80 77 82 86 82 74 66 61 60 62 63 66 72 75 73 80 94 101 112 120 122 127 132 135 143 151 159 172 187 202 209 212 217 226 233 235 232 227 224 223 223 231 244 248 246 242 238 236 236 236 235 235 236 238 239 240 242 243 244 245 245 246 250 255 258 261 262 259 256 255 256 257 259 259 258 260 263 265 267 270 271 270 268 267
101 96 92 90 91 91 88 83 75 69 70 71 74 83 88 86 86 94 100 107 112 113 114 115 116 118 121 127 137 151 167 177 181 190 201 209 213 217 220 220 218 219 228 239 240 236 235 236 237 236 235 235 236 238 240 241 241 242 243 244 245 246 247 250 254 258 261 265 266 264 262 261 261 261 261 261 261 263 266 268 270 272 272 271 268
104 105 102 100 98 93 95 100 98 90 86 81 78 83 87 88 91 98 105 109 109 109 107 103 103 108 113 113 109 109 119 140 158 169 183 189 191 201 213 215 216 220 229 237 238 231 222 222 228 232 233 235 237 239 241 243 245 245 245 247 248 249 251 252 254 256 259 263 266 267 266 265 265 265 265 266 265 266 268 270 271 273 274 272 269
93 85 77 79 83 78 78 87 96 101 94 78 74 84 89 89 94 101 106 109 109 110 109 104 100 104 111 108 99 93 89 91 120 147 167 180 183 193 204 208 212 218 226 233 236 235 226 213 212 219 226 231 235 237 240 242 245 247 248 249 251 252 253 255 256 257 258 259 261 263 264 265 266 267 268 269 269 269 270 270 273 276 276 275 274
92 87 80 82 88 85 76 72 79 92 99 90 85 95 100 95 94 96 97 98 101 103 103 102 103 108 117 113 101 95 90 71 51 77 123 158 158 150 154 180 204 208 219 230 235 238 237 228 221 218 218 223 227 231 235 238 241 245 247 249 252 253 254 255 257 258 259 260 260 260 261 262 264 265 266 267 268 269 269 270 272 275 276 278 278
100 99 92 99 106 100 86 75 73 83 97 103 99 102 109 102 90 88 87 85 87 88 87 88 94 100 107 105 97 95 96 74 34 25 36 58 72 69 68 60 55 104 198 234 250 254 250 244 240 237 233 232 230 230 232 234 236 239 241 245 250 253 254 255 256 257 258 259 260 260 261 262 263 264 264 264 265 266 268 270 271 273 274 276 277
108 89 82 103 111 98 82 76 74 78 86 92 89 93 107 106 93 88 87 83 80 75 68 68 72 75 79 78 69 61 60 47 28 15 16 28 29 12 16 29 30 37 71 85 312 292 278 260 249 247 247 246 243 241 241 241 241 242 243 245 249 253 255 256 257 257 257 258 259 260 260 261 263 264 265 264 264 265 266 267 268 269 270 272 273
96 81 87 106 107 87 76 79 84 84 84 86 84 86 95 100 95 92 88 79 72 64 55 52 50 48 47 46 39 26 19 21 20 14 9 14 15 1 347 338 329 328 347 16 9 336 314 290 265 255 256 256 255 255 257 259 260 260 259 259 259 259 259 258 258 258 258 257 257 258 258 260 262 264 266 266 265 265 265 265 265 267 268 269 271
91 84 90 97 89 77 79 84 86 85 86 89 86 82 86 90 88 84 80 72 64 53 42 35 30 28 26 25 24 22 18 12 9 7 3 1 2 3 360 355 346 337 340 353 1 343 324 308 286 269 266 266 266 269 276 281 279 274 272 271 271 268 265 262 261 261 260 260 259 259 258 258 259 262 265 266 265 264 263 262 263 265 267 268 271
92 90 89 85 81 81 82 81 79 79 81 89 89 80 78 80 78 74 68 60 52 44 33 23 12 7 10 12 11 13 14 10 3 358 355 352 349 349 349 350 351 351 348 349 354 342 319 307 298 287 281 280 282 286 291 290 286 283 281 279 279 278 275 272 270 268 267 266 265 265 263 260 260 261 262 263 263 262 261 261 263 265 266 269 274
93 92 89 84 83 82 80 76 74 75 77 83 89 83 74 71 70 66 56 44 36 28 20 10 358 355 0 2 0 360 359 358 354 349 346 345 346 345 344 344 345 348 347 344 346 336 311 302 300 294 286 285 288 288 288 286 286 287 287 285 284 282 280 281 280 277 274 273 272 271 270 268 266 264 263 261 261 261 262 263 265 264 265 270 276
95 95 91 85 82 81 79 75 73 74 75 81 89 87 77 71 64 55 43 32 24 16 7 360 353 353 354 351 348 347 345 343 344 345 344 345 347 346 345 345 343 340 334 325 317 306 297 297 303 304 299 297 296 292 287 284 284 287 289 288 286 284 283 284 284 281 279 279 279 279 279 278 275 271 268 265 263 262 263 264 265 265 267 272 277
96 97 93 88 84 82 79 74 72 74 75 80 87 83 75 69 59 46 33 22 15 7 358 353 352 350 349 345 342 342 344 346 349 351 349 349 353 351 346 344 341 335 324 312 304 300 299 302 309 314 314 314 312 307 303 299 296 295 296 296 294 292 291 287 284 282 281 281 283 285 285 286 283 279 275 272 269 267 266 265 266 268 271 275 276
93 92 93 91 86 83 79 74 70 72 71 74 77 73 66 61 51 37 27 20 12 4 358 357 355 352 350 349 345 344 346 348 351 353 350 349 350 348 343 340 336 330 322 315 312 311 309 308 312 317 319 321 322 322 320 321 319 315 312 312 310 307 302 292 285 284 285 285 287 288 287 287 284 281 279 276 273 270 268 267 268 270 272 274 274
96 94 94 93 88 85 81 76 70 66 65 65 64 59 53 50 42 30 29 26 13 5 5 4 359 352 350 347 345 345 348 350 352 352 350 348 348 345 343 341 338 334 330 327 328 327 321 314 313 317 322 327 334 340 341 343 343 335 327 323 320 316 311 299 288 285 286 287 288 287 286 284 280 277 275 274 273 271 270 269 270 271 273 274 276
102 100 98 94 91 86 80 74 68 62 60 59 56 49 42 37 32 26 27 24 15 9 9 5 358 352 348 346 347 351 355 357 360 1 359 359 358 354 351 351 350 350 348 347 348 347 342 336 331 330 332 334 331 327 328 332 336 332 324 319 318 317 315 308 298 293 290 288 288 288 288 287 283 277 273 270 270 270 269 270 270 270 271 273 275
110 109 107 102 96 90 83 75 66 58 57 57 55 46 32 23 18 17 19 19 15 14 10 3 358 353 349 349 351 352 351 349 352 356 357 358 358 355 352 350 350 351 349 347 348 347 344 340 337 333 329 324 319 317 317 323 330 331 326 321 318 316 315 313 310 308 303 297 296 296 295 293 291 286 280 275 271 270 269 268 268 268 269 271 274
118 117 117 114 104 95 90 84 74 64 59 55 51 41 29 22 19 19 20 21 19 17 10 1 356 352 349 350 351 350 346 343 344 347 347 346 347 349 349 346 345 346 345 343 342 338 334 332 329 327 324 320 317 315 316 320 327 328 324 321 315 309 308 308 308 308 305 302 301 300 298 296 295 293 290 286 282 279 276 273 271 271 271 272 274
129 129 127 123 116 109 105 100 90 77 65 57 52 42 32 31 29 22 16 13 12 10 7 2 357 351 349 349 349 346 344 342 341 341 340 339 338 339 339 337 337 338 338 336 332 329 327 325 322 319 318 316 314 314 317 321 324 322 318 315 310 306 306 308 308 306 304 301 300 299 298 295 293 291 289 287 287 287 286 284 280 278 277 277 277
140 137 134 129 126 128 125 115 105 95 82 67 53 36 21 19 21 16 9 6 3 1 1 1 357 350 346 344 342 341 340 338 335 334 334 333 332 331 331 328 325 325 326 326 324 321 320 320 318 314 312 309 308 310 315 318 317 314 312 310 308 308 308 308 307 306 304 302 301 300 299 297 292 288 286 285 284 285 286 287 286 286 285 284 283
142 139 139 138 138 137 125 113 105 98 87 65 32 8 352 348 354 0 3 4 3 1 1 360 356 352 347 342 337 335 334 333 332 331 330 329 328 328 329 327 324 322 322 322 320 318 316 317 314 310 307 305 305 309 313 312 309 309 309 305 302 301 303 303 302 302 302 301 301 299 298 295 292 288 285 283 283 283 283 284 285 285 284 283 281
143 139 132 124 121 119 112 103 90 74 62 43 19 4 354 349 350 354 356 357 360 1 358 354 350 347 343 339 336 335 335 334 334 333 332 331 329 329 329 328 327 326 325 323 320 317 315 316 315 311 307 305 305 308 310 308 307 308 308 305 300 297 296 296 297 298 299 299 298 295 292 290 289 286 284 284 284 285 284 283 284 284 282 279 277
Height
814 816 818 820 823 825 827 829 831 834 835 838 840 842 843 845 847 849 851 853 854 855 857 858 859 860 861 862 863 864 865 866 867 868 868 869 869 870 871 872 872 873 874 874 874 875 875 875 876 876 876 876 877 877 877 877 877 876 876 876 876 876 876 876 876 875 875 876 876 875 875 875 875 874 874 874 873 873 872 872 871 871 871 870 870
813 815 817 819 822 824 826 828 830 832 834 837 839 841 843 844 846 848 850 852 854 855 856 857 859 860 861 862 863 864 865 866 866 867 868 869 870 870 871 872 872 873 874 874 874 875 875 875 876 876 876 877 877 877 877 877 877 877 877 877 877 877 877 876 876 876 876 876 876 876 876 875 874 874 874 873 872 872 872 871 871 871 870 870 870
813 814 816 818 821 823 825 828 829 831 833 836 839 840 842 843 845 848 850 852 853 855 856 857 859 860 861 862 863 864 865 865 866 867 868 869 869 870 871 871 872 873 873 874 874 875 875 875 876 876 876 877 877 877 877 878 878 878 878 878 877 877 877 877 877 876 876 876 876 878 878 877 877 874 873 873 872 871 871 871 871 870 870 870 870
814 814 815 817 820 822 824 827 828 830 832 835 838 840 841 842 844 847 849 851 853 855 856 857 859 860 862 863 863 864 865 866 866 867 868 868 869 870 870 871 872 872 873 874 874 875 875 876 876 876 876 877 877 877 878 878 878 878 878 878 878 877 877 877 877 877 877 877 877 879 878 880 881 877 872 871 871 870 870 869 870 870 869 870 869
813 814 814 816 819 821 823 825 827 829 832 834 836 838 840 842 844 846 848 850 852 854 855 857 858 860 861 862 863 864 865 866 866 867 867 868 869 869 870 870 871 872 873 873 874 875 875 876 876 876 877 877 877 877 878 878 878 878 878 878 878 878 877 877 877 877 877 877 877 878 879 882 881 876 874 872 870 869 869 868 868 869 869 869 869
810 812 813 815 817 820 822 824 826 829 830 833 835 837 840 842 843 845 847 849 851 852 854 856 857 859 859 860 861 862 864 864 865 866 867 867 868 868 869 870 871 872 873 873 874 874 875 875 876 876 876 877 877 877 878 878 878 878 878 878 878 878 878 878 877 877 877 877 876 876 878 879 878 875 876 875 871 868 868 867 867 867 868 868 868
808 810 811 813 816 818 820 822 824 827 829 832 835 837 839 841 843 844 846 848 850 851 853 855 856 857 858 859 860 861 862 863 864 865 866 867 868 868 869 870 871 872 872 873 874 874 875 875 876 876 876 877 877 877 878 878 878 878 878 878 878 878 878 878 878 877 877 877 876 876 875 876 875 875 876 876 875 871 868 867 867 867 867 868 867
807 809 810 811 814 816 818 820 823 825 828 831 833 836 838 840 842 844 845 847 849 850 852 853 855 856 857 858 859 860 861 862 863 864 865 866 867 868 869 870 870 871 872 873 873 874 874 875 875 876 876 876 877 877 878 878 878 878 878 878 879 879 878 878 878 878 877 877 876 876 876 875 875 875 874 874 876 875 871 868 867 867 867 867 867
805 807 808 809 812 814 816 819 822 824 827 829 832 835 837 839 841 843 844 846 848 849 851 852 853 854 856 857 857 859 860 861 863 864 865 866 867 868 868 869 870 871 872 872 873 873 874 874 875 875 876 876 877 877 878 878 878 878 878 878 879 879 879 879 878 878 878 877 877 876 876 875 875 874 874 873 873 875 875 870 868 867 867 867 867
804 805 806 807 810 812 815 818 821 823 825 828 831 833 836 838 840 842 843 845 847 848 850 851 852 854 855 855 856 858 859 861 862 863 864 865 866 867 868 869 870 870 871 872 872 873 873 874 874 875 875 876 877 877 877 878 878 878 878 878 878 878 879 878 878 878 878 877 877 876 876 876 875 874 874 874 873 874 874 872 870 869 868 868 867
805 804 805 806 809 811 814 817 819 822 824 827 830 832 834 837 839 840 842 844 845 847 848 850 851 853 854 855 856 857 859 860 861 862 863 864 865 866 867 868 869 870 871 871 872 872 873 873 874 874 875 875 876 877 877 878 878 878 878 878 878 878 878 878 878 878 878 877 877 876 876 876 876 875 874 874 874 873 873 873 871 869 869 868 868
805 803 804 806 808 810 812 815 818 821 823 825 827 830 832 834 837 839 841 842 844 846 847 849 850 852 853 854 856 857 858 859 860 861 862 863 864 865 866 867 868 869 870 871 871 872 872 873 873 874 875 875 876 876 877 877 878 878 878 878 878 878 878 878 878 878 877 877 877 877 877 876 876 875 874 874 874 873 873 873 871 870 870 869 868
803 802 803 804 806 808 811 813 816 819 821 823 825 827 829 832 834 836 838 840 842 844 845 847 849 850 852 853 855 856 858 859 860 861 862 862 863 864 865 866 867 868 869 870 871 871 872 872 873 873 874 875 875 876 876 877 877 877 878 878 878 878 878 878 878 878 878 877 877 877 876 876 876 875 874 874 874 874 874 873 872 872 871 870 869
801 800 802 802 803 806 808 812 814 817 818 820 822 825 827 829 832 834 836 838 840 842 844 845 847 849 851 852 854 856 857 858 859 860 861 862 863 863 864 865 866 867 868 869 870 871 871 872 873 873 874 875 875 876 876 876 877 877 877 878 877 878 878 878 878 878 878 878 877 877 876 876 876 875 874 874 873 874 874 873 873 873 872 871 870
799 800 801 802 803 805 807 810 813 815 817 819 821 823 825 827 829 832 834 836 839 840 842 844 845 847 850 851 853 855 856 857 858 859 860 862 863 863 864 865 866 867 867 868 869 870 871 871 872 873 874 874 875 876 876 876 877 877 877 877 877 877 877 877 878 877 878 878 877 877 876 876 876 875 875 874 874 874 874 874 873 874 874 873 871
800 802 802 805 807 808 808 810 812 814 816 818 820 822 824 826 828 830 832 834 837 839 841 842 844 846 848 850 852 854 855 856 857 859 860 861 862 863 864 865 866 866 867 868 869 869 870 871 872 872 873 874 875 875 876 876 877 877 877 877 877 877 877 877 877 877 877 877 877 877 876 876 876 876 875 875 875 874 874 874 874 874 876 877 875
803 804 804 808 812 813 811 811 811 812 813 816 818 820 822 825 827 829 831 833 835 837 839 841 843 845 847 849 851 853 854 855 856 858 859 860 862 862 863 864 865 866 867 867 868 869 869 870 871 872 872 873 874 874 875 876 876 877 876 877 877 877 877 877 877 877 877 877 877 877 876 875 875 875 875 875 875 875 874 874 874 874 875 876 877
806 807 809 812 813 813 811 809 809 809 812 814 816 818 820 823 826 828 830 831 833 835 838 840 842 844 846 848 851 852 854 855 856 857 858 859 861 862 863 864 865 866 866 867 867 868 869 869 870 871 871 872 873 874 874 875 876 876 876 876 877 877 877 877 877 877 877 877 877 876 876 875 875 875 875 875 875 875 874 874 874 874 874 874 875
811 812 813 813 812 812 810 808 809 810 814 814 814 816 818 821 824 826 828 830 832 834 836 839 841 844 846 848 850 852 853 855 856 857 858 858 860 861 862 863 864 865 866 866 867 867 868 868 869 870 870 871 872 873 874 874 875 876 876 876 876 876 876 876 876 876 876 876 876 876 876 875 875 875 875 875 875 875 875 874 874 874 874 874 873
813 811 810 810 812 812 809 809 810 812 814 814 814 815 816 820 823 825 828 830 832 834 836 839 842 845 848 849 851 852 853 854 855 856 857 857 859 860 861 862 863 864 865 865 866 866 867 867 868 869 870 870 871 871 872 873 874 874 875 875 875 876 876 876 876 876 876 876 876 876 876 875 875 875 874 875 874 874 874 874 874 874 874 874 873
812 808 807 809 811 812 811 810 810 812 815 815 815 815 816 819 822 826 829 831 833 835 837 840 844 848 850 851 852 852 853 854 854 855 856 857 858 858 859 861 862 863 864 864 865 866 866 867 867 868 869 869 870 870 871 871 872 873 873 874 874 875 875 875 875 875 875 875 875 875 875 875 875 874 874 874 874 874 874 874 874 874 873 873 873
810 807 807 809 810 811 812 812 812 814 816 816 816 816 817 820 823 827 830 833 836 837 839 842 846 850 851 850 851 851 851 852 853 854 855 855 857 857 858 859 860 861 862 863 864 864 865 866 866 866 867 868 868 869 869 870 870 871 871 872 873 873 874 874 874 874 874 875 875 875 875 875 874 874 874 874 873 873 873 873 873 873 873 872 872
812 810 809 811 812 812 813 813 815 816 816 817 817 818 820 822 824 827 830 834 838 839 840 842 845 847 847 847 849 849 850 850 851 852 853 854 855 856 857 857 858 859 860 861 862 862 863 864 864 865 865 866 867 867 868 868 868 869 869 870 871 871 872 872 872 873 873 873 874 874 874 874 874 874 873 873 873 873 873 872 872 872 872 871 871
815 814 813 814 815 815 815 815 816 816 817 818 819 820 822 823 825 827 829 833 838 840 840 841 841 841 841 842 846 848 850 850 850 851 851 852 853 854 854 855 856 857 858 858 859 859 860 861 862 863 863 864 865 865 866 866 867 867 867 868 868 869 870 870 871 871 871 872 872 872 873 873 873 873 872 872 872 872 872 871 871 871 871 871 870
818 818 817 817 817 817 817 817 817 818 818 819 820 822 823 824 825 826 827 832 837 839 839 839 839 840 840 841 843 845 848 849 849 849 849 850 851 852 853 854 854 855 856 856 857 857 858 858 859 860 861 862 863 864 865 865 865 866 866 866 867 867 868 868 868 869 869 870 870 870 871 871 871 871 871 871 871 871 871 870 870 870 870 870 869
819 819 820 820 819 819 819 819 819 819 819 820 822 824 825 825 827 827 829 832 835 836 836 838 838 839 840 841 842 843 845 847 847 847 848 849 850 851 852 852 852 853 854 855 855 856 856 856 857 858 859 860 861 862 863 864 864 865 865 865 865 865 866 866 867 867 867 868 868 868 869 869 870 870 869 870 869 869 869 869 869 869 868 868 868
820 820 821 822 821 822 821 821 821 820 821 821 822 824 826 826 827 828 829 831 832 832 833 835 837 838 839 840 841 842 843 845 846 846 847 848 849 849 850 850 851 851 852 853 853 854 855 855 856 856 857 858 859 860 861 862 863 864 864 864 864 865 865 865 865 865 865 866 866 866 867 867 867 867 867 868 868 868 868 867 867 867 867 867 866
820 821 823 823 824 824 823 823 823 822 823 823 823 825 826 826 826 827 828 829 830 830 831 833 835 836 837 837 839 840 842 844 845 845 846 847 847 847 848 849 850 850 850 851 851 852 853 854 854 855 855 856 857 858 859 860 861 862 863 863 863 864 864 864 865 864 864 864 864 864 864 865 865 865 865 866 866 866 865 865 865 865 865 865 864
822 823 824 825 826 826 825 825 824 824 824 824 824 825 826 827 827 826 827 829 829 829 830 831 833 834 835 836 837 839 841 843 843 843 844 845 845 846 847 847 848 848 849 849 849 850 851 851 852 853 853 854 855 856 857 858 859 860 861 861 862 862 862 863 863 864 864 863 863 863 862 862 863 863 863 863 863 863 863 863 863 863 863 863 862
823 824 825 826 827 827 826 826 825 825 826 826 826 827 827 829 829 828 828 828 829 830 831 832 834 835 836 837 838 839 840 841 842 842 842 843 844 845 845 845 846 846 847 847 847 848 848 849 850 851 851 852 852 853 854 855 856 857 858 859 859 860 860 860 861 862 862 862 862 862 861 861 861 861 861 861 861 861 861 861 861 860 860 860 860
823 825 826 827 827 828 828 827 826 826 827 828 829 830 830 832 832 832 831 830 830 831 832 833 835 836 838 839 839 839 840 841 841 841 841 841 842 843 843 843 843 844 845 845 846 846 846 847 848 848 849 850 850 851 852 853 854 854 856 856 857 857 857 858 858 859 859 860 860 860 860 860 860 859 859 859 858 858 858 858 858 858 858 858 858
823 825 826 827 827 828 828 829 828 828 828 830 831 832 833 833 834 834 833 833 832 833 833 834 835 836 837 838 839 839 840 841 840 840 840 840 841 842 842 842 842 842 843 843 844 845 845 845 845 846 847 847 848 849 850 850 851 852 853 854 855 855 855 855 856 856 856 857 857 858 858 858 858 858 857 857 856 856 856 856 856 856 855 855 855
824 825 826 827 828 828 829 829 829 830 830 831 832 833 834 835 835 835 835 835 835 835 836 836 836 837 837 838 839 838 839 841 841 840 840 841 841 841 841 841 841 840 841 841 842 843 843 843 843 844 845 845 846 847 847 848 849 849 851 852 852 853 853 853 853 853 854 854 854 855 855 855 855 855 855 855 855 854 854 854 854 853 853 853 852
824 826 827 829 830 830 830 830 830 831 832 833 833 834 836 836 836 837 837 837 837 837 838 838 838 839 839 839 839 839 840 843 843 841 841 841 841 841 840 840 840 839 839 840 841 841 841 841 841 842 843 843 843 844 844 845 845 846 848 849 850 850 850 850 850 850 851 851 851 851 851 851 852 852 852 853 852 852 852 851 851 850 850 850 850
826 828 829 830 830 830 830 830 831 832 833 834 834 835 836 837 837 838 839 839 839 839 840 840 841 843 842 841 841 842 843 844 843 841 841 841 840 840 839 839 839 838 838 838 839 840 840 840 840 839 840 840 840 841 841 842 843 844 845 846 847 847 848 848 848 848 848 848 848 848 849 848 849 849 849 849 849 849 849 848 848 847 847 846 846
828 829 830 831 831 831 831 831 831 832 833 834 835 836 836 837 838 840 841 841 841 841 841 841 843 844 845 845 845 845 844 844 843 842 841 841 840 839 839 838 838 838 837 836 837 838 839 838 838 837 837 837 837 838 839 840 841 842 843 844 844 845 845 845 845 845 845 845 845 846 845 846 845 845 846 846 846 846 846 845 844 843 843 843 842
830 831 831 831 833 833 832 832 832 833 834 835 837 837 838 838 840 841 842 842 841 841 841 842 842 843 844 845 845 845 844 843 843 842 842 841 840 840 839 838 837 837 836 835 834 836 839 838 836 835 834 834 835 836 837 839 840 841 841 842 842 842 842 841 841 841 841 841 841 842 842 842 842 842 842 843 843 843 843 842 841 840 839 839 838
832 833 833 833 835 834 834 835 834 835 836 837 838 839 839 840 841 842 842 842 842 842 842 842 842 842 843 843 843 843 843 843 843 842 842 841 841 840 839 838 837 836 835 833 832 834 838 838 834 832 832 832 832 834 836 837 837 838 838 838 838 838 838 838 837 837 838 837 838 838 839 839 839 838 839 839 840 840 839 838 838 837 836 835 835
834 835 835 836 837 836 836 837 837 838 839 839 839 840 841 842 843 843 843 843 843 843 843 842 842 842 842 842 842 842 842 843 842 841 840 840 839 838 838 837 835 834 833 832 831 833 838 838 834 831 830 830 831 833 834 834 835 835 835 835 835 835 834 835 835 835 835 835 835 835 835 835 835 835 835 836 837 837 836 835 835 834 833 831 831
835 837 837 838 838 838 839 840 841 841 841 841 841 841 842 843 843 843 843 843 844 844 843 843 843 842 842 842 842 842 842 842 841 840 839 838 837 836 835 833 832 831 830 830 831 834 839 839 834 830 829 830 831 831 832 832 832 833 833 833 833 832 832 832 832 832 832 831 831 831 831 832 832 831 831 832 833 833 833 832 832 831 830 828 828
836 837 838 839 840 841 842 843 843 844 843 843 843 843 844 844 844 844 844 845 845 844 843 843 843 842 842 841 840 841 841 840 840 839 838 837 835 834 833 832 831 831 831 832 834 837 839 837 832 829 828 829 830 830 830 830 830 831 831 831 831 830 830 830 829 829 829 828 828 828 828 828 828 828 828 828 828 829 829 829 828 828 827 826 826
837 838 839 840 841 842 844 844 845 845 845 845 845 845 846 846 845 846 846 846 845 845 844 844 843 842 842 841 840 840 840 839 839 838 837 836 835 834 834 833 833 833 833 834 835 836 835 833 830 828 828 828 829 829 829 829 829 829 829 829 829 828 829 828 827 827 826 826 826 826 825 825 825 825 825 825 825 825 825 825 824 824 824 824 824
838 839 840 841 842 844 845 845 846 846 846 846 846 846 847 847 847 847 847 847 846 845 845 844 844 843 843 842 842 841 840 839 838 837 836 835 835 834 834 834 834 834 834 834 833 832 831 829 828 827 827 827 828 828 828 828 827 827 828 828 827 827 827 827 825 824 824 824 824 823 823 823 823 822 822 822 822 821 821 821 821 821 821 821 820
839 841 841 842 843 845 845 846 847 847 847 847 847 847 847 848 848 848 848 848 847 847 846 845 845 844 843 843 843 842 841 840 839 838 837 836 835 835 834 834 834 834 833 832 831 830 829 828 827 826 826 827 827 827 828 827 827 827 827 826 826 826 825 824 823 822 822 822 821 821 821 820 820 819 819 819 818 818 818 818 818 818 818 817 817
840 842 842 843 844 845 846 847 847 847 848 848 848 848 848 848 848 849 849 848 848 847 847 846 845 845 844 843 842 841 841 840 840 839 839 837 837 835 834 834 834 833 833 832 831 830 829 828 828 827 826 826 827 827 827 826 826 826 825 825 825 824 823 823 821 821 820 820 819 819 818 818 817 816 816 815 815 815 815 815 815 815 814 814 813
841 842 843 844 845 846 846 847 847 848 848 848 848 848 848 848 848 848 848 848 847 847 846 845 845 844 843 843 841 840 839 839 838 838 838 838 838 837 835 835 834 833 832 831 830 830 829 828 828 827 826 825 825 825 825 825 825 824 824 823 823 822 822 821 820 820 819 818 817 817 816 815 814 814 813 812 811 811 811 811 811 811 811 810 810
841 842 843 844 845 846 847 847 848 848 848 848 848 848 848 848 847 847 847 846 846 846 845 845 844 843 843 842 841 840 838 837 836 836 836 836 836 836 836 835 834 833 832 831 830 830 829 828 827 826 826 825 824 824 823 823 823 822 822 822 821 821 821 820 819 819 818 816 815 814 813 813 812 811 810 809 808 808 807 807 807 807 807 806 806
842 842 844 845 845 846 847 847 848 849 849 849 849 848 848 848 847 847 847 846 846 846 845 845 844 844 843 842 841 840 839 838 837 835 835 834 834 834 834 834 833 833 832 831 830 829 829 828 827 826 825 824 823 822 822 821 821 820 820 820 819 819 819 818 817 816 815 814 813 812 811 810 809 808 807 806 805 804 804 803 803 803 803 802 801
841 843 844 845 845 846 847 847 848 849 849 849 849 849 849 848 848 848 847 846 846 846 845 845 845 844 843 843 842 841 840 839 838 837 836 835 834 833 832 832 831 832 831 831 830 829 828 827 826 826 825 824 821 820 820 820 819 819 818 817 816 816 816 815 814 813 812 811 810 809 808 807 806 805 804 803 802 801 800 800 799 799 799 798 798
841 843 844 844 845 846 846 847 848 848 849 849 849 849 849 848 848 848 847 847 846 846 845 845 844 844 843 843 842 841 840 839 839 837 836 835 834 833 832 831 830 829 829 829 828 827 826 826 824 823 823 822 821 819 819 818 817 817 816 815 814 814 813 812 811 810 809 807 807 806 806 805 804 803 802 800 799 798 797 796 796 795 795 795 794
841 842 843 844 845 846 847 848 848 848 849 849 849 849 849 848 848 847 847 846 846 845 845 844 844 843 843 842 841 840 839 838 837 836 835 834 832 831 831 830 830 828 827 827 826 825 824 823 822 821 820 820 819 818 817 817 816 814 814 813 812 811 810 809 808 807 806 805 804 804 803 803 802 801 800 799 798 797 796 794 793 792 792 791 790